TimePDT,TemperatureF,Dew PointF,Humidity,Sea Level PressureIn,VisibilityMPH,Wind Direction,Wind SpeedMPH,Gust SpeedMPH,PrecipitationIn,Events,Conditions,WindDirDegrees,DateUTC
12:53 AM,66.9,48.0,51,29.88,10.0,SSE,4.6,-,N/A,,Clear,150,2010-10-03 07:53:00
1:53 AM,66.9,48.0,51,29.88,10.0,South,4.6,-,N/A,,Clear,190,2010-10-03 08:53:00
2:53 AM,66.0,48.9,54,29.88,10.0,South,5.8,-,N/A,,Clear,180,2010-10-03 09:53:00
3:53 AM,64.0,48.9,58,29.89,10.0,South,8.1,-,N/A,,Clear,180,2010-10-03 10:53:00
4:53 AM,63.0,48.9,60,29.89,10.0,SSW,9.2,-,N/A,,Clear,210,2010-10-03 11:53:00
5:53 AM,61.0,50.0,67,29.91,10.0,SSW,6.9,-,N/A,,Partly Cloudy,200,2010-10-03 12:53:00
6:53 AM,60.1,51.1,72,29.93,10.0,SSW,6.9,-,N/A,,Partly Cloudy,200,2010-10-03 13:53:00
7:53 AM,59.0,51.1,75,29.94,10.0,SSW,6.9,-,N/A,,Partly Cloudy,210,2010-10-03 14:53:00
8:53 AM,61.0,52.0,72,29.95,10.0,Variable,4.6,-,N/A,,Partly Cloudy,0,2010-10-03 15:53:00
9:53 AM,63.0,53.1,70,29.96,10.0,SSW,6.9,17.3,N/A,,Clear,200,2010-10-03 16:53:00
10:53 AM,66.9,53.1,61,29.96,10.0,South,5.8,-,N/A,,Scattered Clouds,190,2010-10-03 17:53:00
11:53 AM,71.1,54.0,55,29.95,10.0,SSW,8.1,-,N/A,,Partly Cloudy,210,2010-10-03 18:53:00
12:53 PM,71.1,54.0,55,29.94,10.0,WSW,8.1,-,N/A,,Clear,240,2010-10-03 19:53:00
1:53 PM,73.9,54.0,50,29.91,10.0,SSW,9.2,-,N/A,,Clear,210,2010-10-03 20:53:00
2:53 PM,75.9,53.1,45,29.90,10.0,SW,13.8,-,N/A,,Mostly Cloudy,220,2010-10-03 21:53:00
3:53 PM,75.9,53.1,45,29.88,10.0,SW,13.8,-,N/A,,Mostly Cloudy,230,2010-10-03 22:53:00
4:53 PM,73.9,51.1,45,29.88,10.0,SW,16.1,21.9,N/A,,Clear,230,2010-10-03 23:53:00
5:53 PM,71.1,50.0,47,29.87,10.0,SW,10.4,19.6,N/A,,Clear,220,2010-10-04 00:53:00
6:53 PM,66.0,48.9,54,29.87,10.0,SW,19.6,25.3,N/A,,Clear,230,2010-10-04 01:53:00
7:53 PM,62.1,51.1,67,29.88,10.0,SW,11.5,19.6,N/A,,Clear,220,2010-10-04 02:53:00
8:53 PM,57.9,51.1,78,29.89,10.0,SSW,8.1,17.3,N/A,,Clear,210,2010-10-04 03:53:00
9:53 PM,57.0,51.1,81,29.89,10.0,SSW,8.1,-,N/A,,Clear,200,2010-10-04 04:53:00
10:53 PM,57.0,51.1,81,29.90,10.0,SSW,9.2,17.3,N/A,,Clear,200,2010-10-04 05:53:00
11:53 PM,57.0,51.1,81,29.89,10.0,South,8.1,-,N/A,,Partly Cloudy,190,2010-10-04 06:53:00